KB6LA Weather Reports


time (UTC)temp
F
wind
direction
speed
knots
gust
knots
rain 1hr
in
rain 24hr
in
rain mn
in
humidity
%
barometer
mb
20260509122656 60 351 0.0 3.5 0.00 0.00 0.00 89 1012.1
20260509122149 60 129 2.6 3.5 0.00 0.00 0.00 89 1012.1
20260509121641 60 5 0.0 3.5 0.00 0.00 0.00 89 1012.1
20260509120626 60 86 1.7 2.6 0.00 0.00 0.00 89 1012.1
20260509115610 60 261 0.0 3.5 0.00 0.00 0.00 89 1012.1
20260509115102 60 51 1.7 2.6 0.00 0.00 0.00 89 1012.1
20260509114555 60 150 1.7 1.7 0.00 0.00 0.00 89 1012.1
20260509114047 60 18 0.9 1.7 0.00 0.00 0.00 89 1012.1
20260509113540 60 46 1.7 1.7 0.00 0.00 0.00 89 1012.1
20260509113033 60 4 0.9 1.7 0.00 0.00 0.00 89 1012.1
20260509112525 60 355 0.0 1.7 0.00 0.00 0.00 89 1012.1
20260509112018 60 183 0.9 1.7 0.00 0.00 0.00 90 1012.1
20260509111002 60 355 0.9 1.7 0.00 0.00 0.00 90 1012.1
20260509110454 60 1 0.0 2.6 0.00 0.00 0.00 90 1012.1
20260509105947 60 6 0.0 2.6 0.00 0.00 0.00 90 1012.1
20260509105439 60 34 0.0 3.5 0.00 0.00 0.00 90 1012.4
20260509104932 60 103 2.6 3.5 0.00 0.00 0.00 90 1012.1
20260509104424 60 114 2.6 3.5 0.00 0.00 0.00 90 1012.4
20260509103917 60 248 0.9 3.5 0.00 0.00 0.00 90 1012.4
20260509102902 60 225 0.9 3.5 0.00 0.00 0.00 90 1012.4
20260509101846 60 286 0.0 2.6 0.00 0.00 0.00 91 1012.4
20260509101339 60 143 1.7 2.6 0.00 0.00 0.00 90 1012.4
20260509100830 59 147 0.0 2.6 0.00 0.00 0.00 91 1012.4
20260509100323 59 150 1.7 2.6 0.00 0.00 0.00 91 1012.4
20260509095309 59 186 0.0 3.5 0.00 0.00 0.00 91 1012.4
20260509094800 59 36 1.7 2.6 0.00 0.00 0.00 91 1012.4
20260509094252 59 193 1.7 3.5 0.00 0.00 0.00 91 1012.4
20260509093237 59 111 1.7 3.5 0.00 0.00 0.00 91 1012.8
20260509092223 59 29 0.9 2.6 0.00 0.00 0.00 91 1012.4
20260509091714 59 250 0.0 2.6 0.00 0.00 0.00 91 1012.8
20260509091207 59 218 0.9 2.6 0.00 0.00 0.00 91 1012.8
20260509090700 59 226 0.0 1.7 0.00 0.00 0.00 91 1012.8
20260509090151 59 230 0.0 1.7 0.00 0.00 0.00 91 1012.4
20260509085644 59 208 0.9 1.7 0.00 0.00 0.00 91 1012.8
20260509085137 59 153 1.7 1.7 0.00 0.00 0.00 91 1012.8
20260509084629 59 170 0.9 2.6 0.00 0.00 0.00 91 1012.8
20260509084122 59 146 0.9 2.6 0.00 0.00 0.00 91 1012.8
20260509083613 59 137 1.7 1.7 0.00 0.00 0.00 91 1012.8
20260509083107 59 62 1.7 2.6 0.00 0.00 0.00 91 1012.8
20260509082558 59 358 0.9 2.6 0.00 0.00 0.00 91 1012.8
20260509082051 59 96 0.9 2.6 0.00 0.00 0.00 91 1012.8
20260509081544 59 202 0.9 2.6 0.00 0.00 0.00 91 1013.1
20260509081036 59 152 1.7 2.6 0.00 0.00 0.00 91 1012.8
20260509080528 59 241 0.9 3.5 0.00 0.00 0.00 91 1013.1
20260509080020 59 235 0.0 3.5 0.00 0.00 0.00 91 1013.1
20260509075513 59 253 1.7 3.5 0.00 0.00 0.00 91 1013.1
20260509075005 59 267 0.9 3.5 0.00 0.00 0.00 91 1013.4
20260509074458 59 232 2.6 3.5 0.00 0.00 0.00 91 1013.4
20260509073951 59 256 0.9 3.5 0.00 0.00 0.00 91 1013.4
20260509073443 59 200 1.7 3.5 0.00 0.00 0.00 91 1013.1
20260509072935 59 241 2.6 3.5 0.00 0.00 0.00 91 1013.4
20260509072428 59 227 2.6 2.6 0.00 0.00 0.00 91 1013.1
20260509071920 59 237 1.7 1.7 0.00 0.00 0.00 91 1013.1
20260509070904 59 265 0.0 2.6 0.00 0.00 0.00 91 1013.4
20260509070357 59 248 0.0 2.6 0.00 0.00 0.00 91 1013.4
20260509065849 59 282 0.9 2.6 0.00 0.00 0.00 91 1013.4
20260509065342 59 295 0.9 1.7 0.00 0.00 0.00 91 1013.4
20260509064834 59 293 1.7 1.7 0.00 0.00 0.00 91 1013.4
20260509064327 59 282 0.0 0.9 0.00 0.00 0.00 91 1013.4
20260509063311 59 283 0.0 2.6 0.00 0.00 0.00 91 1013.4
20260509061242 59 176 0.0 2.6 0.00 0.00 0.00 91 1013.4
20260509060734 59 256 0.0 2.6 0.00 0.00 0.00 91 1013.4
20260509060226 59 259 0.0 2.6 0.00 0.00 0.00 91 1013.4
20260509055719 59 254 0.9 2.6 0.00 0.00 0.00 91 1013.4
20260509055211 59 259 0.0 1.7 0.00 0.00 0.00 91 1013.8
20260509054704 59 262 0.9 1.7 0.00 0.00 0.00 91 1013.4
20260509053648 59 261 0.0 2.6 0.00 0.00 0.00 91 1013.4
20260509053140 59 276 0.9 2.6 0.00 0.00 0.00 91 1013.4
20260509052633 59 271 0.0 1.7 0.00 0.00 0.00 91 1013.8
20260509052125 59 310 0.9 2.6 0.00 0.00 0.00 91 1013.8
20260509051617 59 282 1.7 2.6 0.00 0.00 0.00 91 1013.4
20260509051110 59 273 0.9 2.6 0.00 0.00 0.00 91 1013.4
20260509050602 59 266 2.6 2.6 0.00 0.00 0.00 91 1013.4
20260509045547 59 288 0.0 1.7 0.00 0.00 0.00 91 1013.4
20260509045040 59 272 0.9 2.6 0.00 0.00 0.00 91 1013.4
20260509044024 59 251 0.9 2.6 0.00 0.00 0.00 91 1013.4
20260509043517 59 243 1.7 2.6 0.00 0.00 0.00 91 1013.4
20260509043009 59 312 1.7 3.5 0.00 0.00 0.00 91 1013.4
20260509041954 58 294 0.0 1.7 0.00 0.00 0.00 91 1013.1
20260509041447 58 261 0.0 3.5 0.00 0.00 0.00 91 1013.1
20260509040939 58 243 0.9 5.2 0.00 0.00 0.00 91 1013.1
20260509035924 59 215 3.5 6.1 0.00 0.00 0.00 91 1013.1
20260509035417 59 214 3.5 6.1 0.00 0.00 0.00 91 1013.1
20260509034908 59 298 1.7 6.1 0.00 0.00 0.00 91 1013.4
20260509033853 59 210 3.5 6.1 0.00 0.00 0.00 90 1013.1
20260509033346 59 258 2.6 6.1 0.00 0.00 0.00 90 1013.1
20260509031823 59 217 2.6 7.0 0.00 0.00 0.00 90 1012.8
20260509031315 59 259 3.5 6.1 0.00 0.00 0.00 90 1012.8
20260509030807 59 257 5.2 6.1 0.00 0.00 0.00 90 1012.4
20260509030300 59 303 3.5 6.1 0.00 0.00 0.00 89 1012.4
20260509025753 59 246 3.5 7.0 0.00 0.00 0.00 89 1012.4
20260509025244 59 270 1.7 7.0 0.00 0.00 0.00 89 1012.4
20260509024230 59 219 5.2 7.8 0.00 0.00 0.00 88 1012.4
20260509023215 60 163 5.2 7.0 0.00 0.00 0.00 88 1012.4
20260509022159 60 274 3.5 7.0 0.00 0.00 0.00 87 1012.4
20260509021651 60 259 5.2 7.0 0.00 0.00 0.00 87 1012.4
20260509021144 60 267 3.5 7.0 0.00 0.00 0.00 87 1012.4
20260509020637 60 274 3.5 8.7 0.00 0.00 0.00 87 1012.8
20260509020128 60 260 4.3 8.7 0.00 0.00 0.00 87 1012.4
20260509015622 60 228 5.2 8.7 0.00 0.00 0.00 87 1012.4
20260509014606 60 274 0.9 7.8 0.00 0.00 0.00 87 1012.4
20260509014058 60 261 4.3 7.8 0.00 0.00 0.00 87 1012.4
20260509013551 60 261 5.2 7.8 0.00 0.00 0.00 86 1012.4
20260509013043 61 218 5.2 7.8 0.00 0.00 0.00 86 1012.4
20260509012535 61 238 5.2 9.6 0.00 0.00 0.00 86 1012.4
20260509012027 61 256 5.2 11.3 0.00 0.00 0.00 86 1012.4
20260509011520 61 243 8.7 12.2 0.00 0.00 0.00 85 1012.4
20260509011013 62 223 5.2 12.2 0.00 0.00 0.00 85 1012.4
20260509005958 61 212 7.0 11.3 0.00 0.00 0.00 85 1012.4
20260509005449 62 252 6.1 11.3 0.00 0.00 0.00 84 1012.4
20260509004943 62 206 7.0 11.3 0.00 0.00 0.00 85 1012.4
20260509004434 62 244 5.2 11.3 0.00 0.00 0.00 83 1012.4
20260509003926 63 255 6.1 11.3 0.00 0.00 0.00 82 1012.4
20260509003419 63 245 4.3 11.3 0.00 0.00 0.00 83 1012.4
20260509002912 63 262 8.7 11.3 0.00 0.00 0.00 83 1012.4
20260509002404 63 229 7.8 11.3 0.00 0.00 0.00 80 1012.4
20260509001349 64 246 6.1 11.3 0.00 0.00 0.00 81 1012.8
20260509000842 64 263 4.3 14.8 0.00 0.00 0.00 81 1012.4
20260508235826 64 215 6.1 13.0 0.00 0.00 0.00 80 1012.4
20260508235318 64 237 10.4 12.2 0.00 0.00 0.00 78 1012.4
20260508234810 65 211 5.2 12.2 0.00 0.00 0.00 80 1012.4
20260508234303 64 237 8.7 12.2 0.00 0.00 0.00 79 1012.4
20260508233755 65 266 7.0 12.2 0.00 0.00 0.00 79 1012.4
20260508233248 65 285 7.8 11.3 0.00 0.00 0.00 79 1012.4
20260508232740 65 229 7.0 12.2 0.00 0.00 0.00 79 1012.4
20260508232232 65 251 7.8 13.0 0.00 0.00 0.00 79 1012.8
20260508231724 65 236 7.8 13.0 0.00 0.00 0.00 78 1012.4
20260508231218 65 225 5.2 12.2 0.00 0.00 0.00 78 1012.8
20260508230709 65 281 7.0 12.2 0.00 0.00 0.00 78 1012.8
20260508230202 65 218 7.0 13.0 0.00 0.00 0.00 78 1012.8
20260508225654 65 223 8.7 13.0 0.00 0.00 0.00 78 1012.8
20260508225147 66 205 7.8 12.2 0.00 0.00 0.00 75 1012.8
20260508224640 65 249 7.8 13.9 0.00 0.00 0.00 78 1013.1
20260508224132 65 260 6.1 13.9 0.00 0.00 0.00 78 1013.1
20260508223625 66 273 5.2 13.0 0.00 0.00 0.00 77 1013.1
20260508223116 65 220 6.1 13.9 0.00 0.00 0.00 77 1013.1
20260508222101 66 246 7.8 12.2 0.00 0.00 0.00 77 1013.4
20260508221553 66 187 6.1 11.3 0.00 0.00 0.00 78 1013.1
20260508221046 66 255 7.0 11.3 0.00 0.00 0.00 77 1013.4
20260508220538 65 265 6.1 13.9 0.00 0.00 0.00 78 1013.4
20260508220031 65 248 11.3 13.9 0.00 0.00 0.00 76 1013.4
20260508215523 65 232 7.8 13.0 0.00 0.00 0.00 76 1013.4
20260508214508 66 266 5.2 12.2 0.00 0.00 0.00 75 1013.8
20260508213452 65 233 5.2 12.2 0.00 0.00 0.00 76 1013.8
20260508212945 66 253 7.0 12.2 0.00 0.00 0.00 74 1013.8
20260508211930 66 236 4.3 13.0 0.00 0.00 0.00 76 1013.8
20260508211422 66 256 6.1 12.2 0.00 0.00 0.00 75 1014.1
20260508210915 67 209 5.2 12.2 0.00 0.00 0.00 74 1014.1
20260508210407 67 238 5.2 11.3 0.00 0.00 0.00 74 1014.1
20260508205900 67 203 5.2 12.2 0.00 0.00 0.00 75 1014.1
20260508205352 66 193 5.2 12.2 0.00 0.00 0.00 75 1014.1
20260508203829 66 272 6.1 9.6 0.00 0.00 0.00 75 1014.1
20260508203321 66 219 6.1 11.3 0.00 0.00 0.00 76 1014.1
20260508202814 65 239 7.8 13.9 0.00 0.00 0.00 76 1014.5
20260508202307 66 239 10.4 13.9 0.00 0.00 0.00 75 1014.5
20260508201759 66 276 3.5 12.2 0.00 0.00 0.00 77 1014.5
20260508201251 67 243 4.3 11.3 0.00 0.00 0.00 74 1014.5
20260508200744 67 207 7.0 11.3 0.00 0.00 0.00 75 1014.5
20260508195728 67 250 7.0 12.2 0.00 0.00 0.00 75 1014.5
20260508194713 67 201 4.3 9.6 0.00 0.00 0.00 75 1014.5
20260508194205 66 228 4.3 11.3 0.00 0.00 0.00 77 1014.5
20260508193658 66 238 3.5 11.3 0.00 0.00 0.00 75 1014.8
20260508193150 66 207 6.1 9.6 0.00 0.00 0.00 75 1014.5
20260508192643 66 239 2.6 11.3 0.00 0.00 0.00 76 1014.8
20260508192135 66 252 4.3 11.3 0.00 0.00 0.00 75 1014.8
20260508191628 66 297 3.5 8.7 0.00 0.00 0.00 76 1014.8
20260508191119 66 184 6.1 7.8 0.00 0.00 0.00 76 1014.8
20260508190612 66 245 5.2 9.6 0.00 0.00 0.00 76 1014.8
20260508190104 65 218 5.2 9.6 0.00 0.00 0.00 77 1015.1
20260508185557 65 200 4.3 8.7 0.00 0.00 0.00 77 1015.1
20260508185049 66 212 1.7 7.8 0.00 0.00 0.00 77 1015.1
20260508184542 65 172 4.3 8.7 0.00 0.00 0.00 77 1015.1
20260508184034 65 231 6.1 8.7 0.00 0.00 0.00 77 1015.1
20260508183527 66 245 2.6 8.7 0.00 0.00 0.00 76 1015.1
20260508183019 65 242 1.7 7.8 0.00 0.00 0.00 76 1015.1
20260508182512 65 284 3.5 11.3 0.00 0.00 0.00 77 1015.1
20260508182003 65 214 3.5 11.3 0.00 0.00 0.00 78 1015.1
20260508180948 64 180 3.5 8.7 0.00 0.00 0.00 79 1015.1
20260508175933 65 227 4.3 6.1 0.00 0.00 0.00 75 1015.5
20260508174918 66 193 2.6 3.5 0.00 0.00 0.00 73 1015.1
20260508173903 66 286 0.0 3.5 0.00 0.00 0.00 74 1015.5
20260508173355 65 331 0.9 3.5 0.00 0.00 0.00 76 1015.5
20260508172848 64 249 2.6 3.5 0.00 0.00 0.00 77 1015.5
20260508172340 64 266 0.9 6.1 0.00 0.00 0.00 77 1015.5
20260508171325 64 205 0.9 5.2 0.00 0.00 0.00 78 1015.5
20260508170817 64 209 0.9 3.5 0.00 0.00 0.00 77 1015.5
20260508170310 64 223 1.7 3.5 0.00 0.00 0.00 77 1015.5
20260508165802 64 219 1.7 3.5 0.00 0.00 0.00 78 1015.5
20260508165254 63 221 2.6 3.5 0.00 0.00 0.00 79 1015.1
20260508164747 63 229 2.6 5.2 0.00 0.00 0.00 79 1015.5
20260508164239 63 219 4.3 6.1 0.00 0.00 0.00 79 1015.5
20260508163731 63 39 0.9 6.1 0.00 0.00 0.00 79 1015.5
20260508163224 63 63 2.6 5.2 0.00 0.00 0.00 79 1015.1
20260508162717 63 222 0.9 3.5 0.00 0.00 0.00 79 1015.1
20260508162209 63 46 0.9 3.5 0.00 0.00 0.00 79 1015.1
20260508161702 63 234 1.7 3.5 0.00 0.00 0.00 79 1015.1
20260508161153 63 200 1.7 2.6 0.00 0.00 0.00 79 1015.1
20260508160646 63 113 1.7 2.6 0.00 0.00 0.00 79 1015.1
20260508160138 63 342 0.0 1.7 0.00 0.00 0.00 79 1015.5
20260508155631 63 258 0.9 1.7 0.00 0.00 0.00 80 1015.1
20260508155124 63 290 0.0 3.5 0.00 0.00 0.00 81 1015.1
20260508154615 62 38 1.7 3.5 0.00 0.00 0.00 81 1015.1
20260508153600 62 290 0.0 2.6 0.00 0.00 0.00 82 1015.5
20260508153053 62 275 0.0 2.6 0.00 0.00 0.00 83 1015.5
20260508152545 61 162 1.7 3.5 0.00 0.00 0.00 83 1015.1
20260508152037 61 104 3.5 3.5 0.00 0.00 0.00 82 1015.5
20260508151530 61 172 2.6 3.5 0.00 0.00 0.00 83 1015.5
20260508151023 61 336 0.0 5.2 0.00 0.00 0.00 84 1015.5
20260508150007 61 161 2.6 6.1 0.00 0.00 0.00 84 1015.5
20260508144444 61 259 0.9 3.5 0.00 0.00 0.00 84 1015.5
20260508143937 61 162 1.7 3.5 0.00 0.00 0.00 84 1015.5
20260508143429 61 158 0.9 3.5 0.00 0.00 0.00 84 1015.5
20260508142922 61 159 1.7 3.5 0.00 0.00 0.00 85 1015.5
20260508141906 61 113 3.5 5.2 0.00 0.00 0.00 85 1015.5
20260508141359 60 275 0.0 5.2 0.00 0.00 0.00 85 1015.5
20260508140851 60 145 3.5 3.5 0.00 0.00 0.00 85 1015.1
20260508140344 60 278 0.0 1.7 0.00 0.00 0.00 86 1015.1
20260508135835 60 279 0.0 2.6 0.00 0.00 0.00 86 1015.1
20260508135328 60 253 0.9 3.5 0.00 0.00 0.00 85 1015.1
20260508134820 61 114 2.6 3.5 0.00 0.00 0.00 85 1015.5
20260508134313 61 58 1.7 3.5 0.00 0.00 0.00 85 1015.1
20260508133805 61 119 3.5 3.5 0.00 0.00 0.00 85 1015.1
20260508133258 61 341 0.0 2.6 0.00 0.00 0.00 85 1015.1
20260508132750 60 60 0.9 2.6 0.00 0.00 0.00 86 1015.1
20260508132243 61 55 1.7 2.6 0.00 0.00 0.00 85 1015.1
20260508131736 61 26 0.0 3.5 0.00 0.00 0.00 85 1015.1
20260508130212 61 3 1.7 2.6 0.00 0.00 0.00 86 1015.1
20260508125705 61 355 0.0 3.5 0.00 0.00 0.00 86 1014.8
20260508125157 61 350 0.0 5.2 0.00 0.00 0.00 86 1014.8
20260508124649 61 63 3.5 5.2 0.00 0.00 0.00 86 1014.8
20260508124142 61 352 0.9 3.5 0.00 0.00 0.00 86 1014.8
20260508123127 61 27 0.9 3.5 0.00 0.00 0.00 86 1014.5